Location: El Manguito
(10.2358°N, 67.3634°W)
Time: 22:00:52
(UTC+00:00)

Aurora 2 Rocket - Pass Details

Date: 14 December 2024
Orbit: 386 x 1590 km, 25.0° (Epoch: 12 January)

Event Time Altitude Azimuth Distance (km) Brightness Sun altitude
Rises 23:21:46 0° 250° (WSW) 3,739 8.4 -17.1°
Reaches altitude 10° 23:24:11 10° 252° (WSW) 2,948 7.3 -17.6°
Maximum altitude 23:31:49 76° 337° (NNW) 1,377 4.2 -19.4°
Enters shadow 23:37:10 30° 58° (ENE) 2,401 4.9 -20.6°
